Ozark, AL

9:48 PM CDT on August 21, 2017 (GMT -0500)
Cairns Army Air Field

Weather History for KOZR - December, 2014

Change the Weather History Date:

Wednesday, December 24, 2014

  Actual Average Record
Temperature  
Mean Temperature 58 °F -  
Max Temperature 66 °F 58 °F 82 °F (2015)
Min Temperature 48 °F 36 °F 28 °F (2004)
Degree Days  
Heating Degree Days 7    
Growing Degree Days 8 (Base 50)    
Moisture  
Dew Point 57 °F    
Average Humidity 88    
Maximum Humidity 94    
Minimum Humidity 72    
Precipitation  
Precipitation 1.13 in - - ()
Sea Level Pressure  
Sea Level Pressure 29.70 in    
Wind  
Wind Speed 8 mph (SSE)    
Max Wind Speed 21 mph    
Max Gust Speed 25 mph    
Visibility 7 miles    
Events Fog , Rain , Thunderstorm    
Averages and records for this station are not official NWS values.
T = Trace of Precipitation, MM = Missing Value Source: NWS Daily Summary

Daily Weather History Graph

Daily Weather History Graph

Search for Another Location

Airport or City:

Trip Planner

Search our weather history database for the weather conditions in past years. The results will help you decide how hot, cold, wet, or windy it might be!

Date:

Astronomy

Dec. 24, 2014 Rise Set
Actual Time 6:38 AM CST 4:46 PM CST
Civil Twilight 6:12 AM CST 5:12 PM CST
Nautical Twilight 5:41 AM CST 5:43 PM CST
Astronomical Twilight 5:12 AM CST 6:12 PM CST
Moon 8:39 AM CST (12/24) 7:58 PM CST (12/24)
Length of Visible Light 11h 00m
Length of Day
10h 07m
Waxing Crescent, 10% of the Moon is Illuminated
Dec 24
Waxing Crescent
Dec 28
First Quarter
Jan 4
Full
Jan 13
Last Quarter
Jan 20
New

Hourly Weather History & Observations

Time (CST) Temp. Dew Point Humidity Pressure Visibility Wind Dir Wind Speed Gust Speed Precip Events Conditions
12:03 AM 59.0 °F 55.4 °F 88% 29.69 in 10.0 mi NE 8.1 mph - N/A Rain Light Rain
12:13 AM 59.0 °F 55.4 °F 88% 29.68 in 9.0 mi NE 9.2 mph - N/A Rain Light Rain
12:18 AM 59.0 °F 55.4 °F 88% 29.67 in 10.0 mi NE 13.8 mph - N/A Rain Light Rain
12:58 AM 59.0 °F 55.4 °F 88% 29.69 in 3.0 mi Variable 4.6 mph - 0.08 in Rain Heavy Rain
1:02 AM 59.0 °F 57.2 °F 94% 29.67 in 5.0 mi NE 5.8 mph - N/A Rain , Thunderstorm Thunderstorms and Rain
1:12 AM 59.0 °F 57.2 °F 94% 29.68 in 2.5 mi ENE 6.9 mph - N/A Rain , Thunderstorm Heavy Thunderstorms and Rain
1:17 AM 59.0 °F 57.2 °F 94% 29.68 in 2.0 mi NE 4.6 mph - N/A Rain , Thunderstorm Heavy Thunderstorms and Rain
1:22 AM 59.0 °F 55.4 °F 88% 29.70 in 3.0 mi Variable 3.5 mph - N/A Rain , Thunderstorm Heavy Thunderstorms and Rain
1:32 AM 59.0 °F 55.4 °F 88% 29.68 in 2.5 mi NNE 4.6 mph - N/A Rain , Thunderstorm Heavy Thunderstorms and Rain
1:37 AM 59.0 °F 55.4 °F 88% 29.67 in 1.5 mi ENE 9.2 mph - N/A Rain , Thunderstorm Heavy Thunderstorms and Rain
1:42 AM 59.0 °F 55.4 °F 88% 29.65 in 2.0 mi ENE 10.4 mph - N/A Rain , Thunderstorm Heavy Thunderstorms and Rain
1:47 AM 59.0 °F 55.4 °F 88% 29.65 in 3.0 mi ENE 10.4 mph - N/A Rain , Thunderstorm Light Thunderstorms and Rain
1:52 AM 59.0 °F 55.4 °F 88% 29.65 in 6.0 mi East 11.5 mph - N/A Rain , Thunderstorm Light Thunderstorms and Rain
1:58 AM 59.0 °F 56.1 °F 90% 29.65 in 8.0 mi ENE 11.5 mph - 0.30 in Rain , Thunderstorm Light Thunderstorms and Rain
2:23 AM 59.0 °F 57.2 °F 94% 29.67 in 2.5 mi East 6.9 mph - N/A Rain , Thunderstorm Heavy Thunderstorms and Rain
2:28 AM 59.0 °F 57.2 °F 94% 29.64 in 1.8 mi ENE 9.2 mph - N/A Rain , Thunderstorm Heavy Thunderstorms and Rain
2:33 AM 59.0 °F 57.2 °F 94% 29.66 in 2.5 mi Variable 2.3 mph - N/A Rain , Thunderstorm Thunderstorms and Rain
2:34 AM 59.0 °F 57.2 °F 94% 29.66 in 3.0 mi East 4.6 mph - N/A Rain , Thunderstorm Rain
2:39 AM 59.0 °F 57.2 °F 94% 29.65 in 4.0 mi NE 6.9 mph - N/A Rain , Thunderstorm Heavy Rain
2:54 AM 60.8 °F 57.2 °F 88% 29.64 in 4.0 mi East 8.1 mph - N/A Rain , Thunderstorm Light Rain
2:58 AM 59.9 °F 57.0 °F 90% 29.64 in 5.0 mi ENE 8.1 mph - 0.25 in Rain Light Rain
3:03 AM 60.8 °F 57.2 °F 88% 29.63 in 10.0 mi East 5.8 mph - N/A Rain Light Rain
3:04 AM 59.0 °F 57.2 °F 94% 29.64 in 10.0 mi East 4.6 mph - N/A   Mostly Cloudy
3:07 AM 59.0 °F 57.2 °F 94% 29.63 in 10.0 mi East 2.3 mph - N/A Rain Light Rain
3:12 AM 59.0 °F 57.2 °F 94% 29.63 in 9.0 mi ENE 2.3 mph - N/A Rain Light Rain
3:17 AM 59.0 °F 57.2 °F 94% 29.64 in 10.0 mi East 3.5 mph - N/A Rain Light Rain
3:22 AM 60.8 °F 57.2 °F 88% 29.63 in 10.0 mi East 8.1 mph - N/A Rain , Thunderstorm Light Rain
3:26 AM 60.8 °F 57.2 °F 88% 29.63 in 10.0 mi East 6.9 mph - N/A Rain , Thunderstorm Light Thunderstorms and Rain
3:31 AM 60.8 °F 57.2 °F 88% 29.62 in 10.0 mi ENE 8.1 mph - N/A Thunderstorm Thunderstorm
3:40 AM 60.8 °F 57.2 °F 88% 29.63 in 10.0 mi East 5.8 mph - N/A Rain , Thunderstorm Light Thunderstorms and Rain
3:41 AM 60.8 °F 57.2 °F 88% 29.63 in 9.0 mi East 5.8 mph - N/A Rain Light Rain
3:42 AM 60.8 °F 57.2 °F 88% 29.63 in 9.0 mi East 5.8 mph - N/A Rain , Thunderstorm Light Thunderstorms and Rain
3:58 AM 60.3 °F 57.7 °F 91% 29.62 in 8.0 mi ENE 4.6 mph - 0.04 in Rain , Thunderstorm Light Thunderstorms and Rain
3:59 AM 60.8 °F 57.2 °F 88% 29.61 in 8.0 mi ENE 5.8 mph - N/A Rain Light Rain
4:02 AM 60.8 °F 57.2 °F 88% 29.61 in 7.0 mi ENE 5.8 mph - N/A Rain , Thunderstorm Thunderstorms and Rain
4:12 AM 60.8 °F 57.2 °F 88% 29.62 in 6.0 mi East 5.8 mph - N/A Rain , Thunderstorm Light Thunderstorms and Rain
4:17 AM 60.8 °F 59.0 °F 94% 29.63 in 9.0 mi ESE 4.6 mph - N/A Rain Light Rain
4:27 AM 60.8 °F 59.0 °F 94% 29.64 in 5.0 mi SSE 3.5 mph - N/A Rain Rain
4:37 AM 60.8 °F 59.0 °F 94% 29.64 in 3.0 mi South 4.6 mph - N/A Rain Heavy Rain
4:43 AM 62.6 °F 59.0 °F 88% 29.64 in 3.0 mi SW 4.6 mph - N/A Rain Heavy Rain
4:48 AM 62.6 °F 59.0 °F 88% 29.64 in 5.0 mi SW 5.8 mph - N/A Rain Rain
4:53 AM 62.6 °F 60.8 °F 94% 29.65 in 5.0 mi SW 5.8 mph - N/A Rain Heavy Rain
4:58 AM 63.1 °F 60.4 °F 91% 29.65 in 4.0 mi SW 5.8 mph - 0.16 in Rain Heavy Rain
5:03 AM 62.6 °F 60.8 °F 94% 29.65 in 3.0 mi WSW 5.8 mph - N/A Rain Heavy Rain
5:12 AM 62.6 °F 60.8 °F 94% 29.66 in 2.5 mi West 5.8 mph - N/A Rain Heavy Rain
5:13 AM 62.6 °F 60.8 °F 94% 29.65 in 2.5 mi West 5.8 mph - N/A Rain , Thunderstorm Heavy Thunderstorms and Rain
5:18 AM 62.6 °F 59.0 °F 88% 29.65 in 2.5 mi WNW 4.6 mph - N/A Rain , Thunderstorm Heavy Thunderstorms and Rain
5:23 AM 62.6 °F 59.0 °F 88% 29.66 in 2.0 mi West 3.5 mph - N/A Rain , Thunderstorm Heavy Thunderstorms and Rain
5:28 AM 62.6 °F 59.0 °F 88% 29.65 in 2.0 mi NW 3.5 mph - N/A Rain Heavy Rain
5:33 AM 62.6 °F 59.0 °F 88% 29.65 in 2.0 mi NW 1.2 mph - N/A Rain Heavy Rain
5:43 AM 62.6 °F 59.0 °F 88% 29.66 in 3.0 mi Calm Calm - N/A Rain Heavy Rain
5:58 AM 61.9 °F 59.2 °F 91% 29.65 in 5.0 mi East 2.3 mph - 0.25 in Rain , Thunderstorm Rain
6:23 AM 62.6 °F 60.8 °F 94% 29.65 in 2.0 mi SE 4.6 mph - N/A   Light Drizzle
6:28 AM 62.6 °F 60.8 °F 94% 29.65 in 0.5 mi SE 5.8 mph - N/A Fog , Rain Light Rain
6:33 AM 62.6 °F 60.8 °F 94% 29.65 in 0.2 mi SE 5.8 mph - N/A Fog , Rain Light Rain
6:38 AM 62.6 °F 60.8 °F 94% 29.65 in 0.2 mi SSE 4.6 mph - N/A Fog , Rain Light Rain
6:39 AM 62.6 °F 60.8 °F 94% 29.65 in 0.2 mi SE 4.6 mph - N/A Fog , Rain Light Rain
6:44 AM 62.6 °F 60.8 °F 94% 29.64 in 0.5 mi SE 4.6 mph - N/A Fog Light Drizzle
6:49 AM 62.6 °F 60.8 °F 94% 29.64 in 0.5 mi SE 4.6 mph - N/A Fog , Rain Light Rain
6:54 AM 62.6 °F 60.8 °F 94% 29.66 in 1.0 mi SSE 5.8 mph - N/A Rain Light Rain
6:58 AM 63.3 °F 61.0 °F 92% 29.65 in 1.0 mi SSE 5.8 mph - 0.05 in Rain Light Rain
7:03 AM 62.6 °F 60.8 °F 94% 29.65 in 2.5 mi SSE 5.8 mph - N/A   Light Drizzle
7:08 AM 64.4 °F 60.8 °F 88% 29.65 in 10.0 mi SSE 6.9 mph - N/A   Light Drizzle
7:58 AM 64.8 °F 61.9 °F 90% 29.68 in 10.0 mi South 9.2 mph - 0.00 in   Light Drizzle
8:18 AM 66.2 °F 62.6 °F 88% 29.67 in 10.0 mi South 6.9 mph - N/A   Light Drizzle
8:20 AM 66.2 °F 62.6 °F 88% 29.67 in 10.0 mi South 8.1 mph - N/A   Light Drizzle
8:30 AM 66.2 °F 62.6 °F 88% 29.67 in 10.0 mi South 9.2 mph - N/A   Light Drizzle
8:50 AM 66.2 °F 62.6 °F 88% 29.69 in 10.0 mi SSW 10.4 mph - N/A   Overcast
8:55 AM 66.2 °F 62.6 °F 88% 29.70 in 10.0 mi SSW 10.4 mph - N/A   Overcast
8:58 AM 66.2 °F 64.4 °F 94% 29.70 in 10.0 mi SW 11.5 mph - 0.00 in   Overcast
9:13 AM 66.2 °F 62.6 °F 88% 29.71 in 10.0 mi SW 13.8 mph - N/A   Overcast
9:23 AM 66.2 °F 62.6 °F 88% 29.71 in 10.0 mi SW 13.8 mph - N/A   Overcast
9:33 AM 66.2 °F 64.4 °F 94% 29.72 in 10.0 mi SW 13.8 mph - N/A   Overcast
9:58 AM 66.7 °F 63.0 °F 88% 29.75 in 10.0 mi SW 16.1 mph - N/A   Overcast
10:03 AM 66.2 °F 62.6 °F 88% 29.74 in 10.0 mi SW 11.5 mph - N/A   Overcast
10:08 AM 66.2 °F 62.6 °F 88% 29.74 in 10.0 mi SW 12.7 mph - N/A   Overcast
10:48 AM 66.2 °F 60.8 °F 83% 29.74 in 10.0 mi SW 8.1 mph - N/A   Overcast
10:58 AM 66.9 °F 61.2 °F 82% 29.75 in 10.0 mi SW 6.9 mph - N/A   Mostly Cloudy
11:33 AM 66.2 °F 60.8 °F 83% 29.73 in 10.0 mi WSW 10.4 mph - N/A   Overcast
11:58 AM 66.2 °F 59.0 °F 78% 29.75 in 10.0 mi WSW 12.7 mph - N/A   Overcast
12:58 PM 64.0 °F 56.8 °F 77% 29.75 in 10.0 mi West 20.7 mph 25.3 mph N/A   Overcast
1:08 PM 60.8 °F 55.4 °F 82% 29.75 in 10.0 mi West 17.3 mph 25.3 mph N/A   Overcast
1:48 PM 59.0 °F 53.6 °F 82% 29.77 in 10.0 mi WNW 13.8 mph - N/A   Overcast
1:58 PM 59.5 °F 53.1 °F 79% 29.78 in 10.0 mi WNW 11.5 mph - N/A   Overcast
2:28 PM 59.0 °F 50.0 °F 72% 29.78 in 10.0 mi West 12.7 mph - N/A   Overcast
2:33 PM 59.0 °F 50.0 °F 72% 29.78 in 10.0 mi West 15.0 mph - N/A   Overcast
2:58 PM 57.9 °F 49.3 °F 73% 29.81 in 10.0 mi West 11.5 mph 20.7 mph N/A   Overcast
3:03 PM 57.2 °F 50.0 °F 77% 29.81 in 10.0 mi West 10.4 mph - N/A   Overcast
3:58 PM 54.7 °F 47.8 °F 78% 29.85 in 10.0 mi West 10.4 mph - N/A   Overcast
4:18 PM 53.6 °F 46.4 °F 77% 29.84 in 10.0 mi WNW 11.5 mph - N/A   Mostly Cloudy
4:58 PM 53.1 °F 45.1 °F 74% 29.87 in 10.0 mi WNW 12.7 mph - N/A   Overcast
5:58 PM 52.3 °F 44.8 °F 75% 29.88 in 10.0 mi WNW 8.1 mph - N/A   Mostly Cloudy
6:58 PM 51.6 °F 45.7 °F 80% 29.94 in 10.0 mi West 4.6 mph - N/A   Mostly Cloudy
7:58 PM 51.1 °F 45.3 °F 81% 29.99 in 10.0 mi WSW 8.1 mph - N/A   Mostly Cloudy
8:58 PM 50.9 °F 45.5 °F 82% 29.98 in 10.0 mi West 3.5 mph - N/A   Mostly Cloudy
9:58 PM 51.1 °F 45.0 °F 80% 30.02 in 10.0 mi West 8.1 mph - N/A   Overcast
10:58 PM 50.4 °F 41.9 °F 73% 30.01 in 10.0 mi WNW 8.1 mph - N/A   Mostly Cloudy
11:58 PM 48.9 °F 40.8 °F 74% 30.04 in 10.0 mi NW 10.4 mph - N/A   Mostly Cloudy